Boonville, MO

6:30 AM CDT on September 20, 2017 (GMT -0500)
Viertel Memorial

Weather History for KVER - February, 2013

Change the Weather History Date:

Monday, February 25, 2013

  Actual Average Record
Temperature  
Mean Temperature 33 °F -  
Max Temperature 41 °F 44 °F 73 °F (1976)
Min Temperature 25 °F 26 °F 0 °F (1965)
Degree Days  
Heating Degree Days 32    
Moisture  
Dew Point 26 °F    
Average Humidity 73    
Maximum Humidity 99    
Minimum Humidity 52    
Precipitation  
Precipitation 0.28 in - - ()
Sea Level Pressure  
Sea Level Pressure 29.88 in    
Wind  
Wind Speed 9 mph (NE)    
Max Wind Speed 25 mph    
Max Gust Speed 34 mph    
Visibility 9 miles    
Events Rain , Snow    
Averages and records for this station are not official NWS values.
T = Trace of Precipitation, MM = Missing Value Source: NWS Daily Summary

Daily Weather History Graph

Daily Weather History Graph

Search for Another Location

Airport or City:

Trip Planner

Search our weather history database for the weather conditions in past years. The results will help you decide how hot, cold, wet, or windy it might be!

Date:

Astronomy

Feb. 25, 2013 Rise Set
Actual Time 6:48 AM CST 5:59 PM CST
Civil Twilight 6:21 AM CST 6:26 PM CST
Nautical Twilight 5:50 AM CST 6:57 PM CST
Astronomical Twilight 5:19 AM CST 7:28 PM CST
Moon 6:12 PM CST (2/25) 6:19 AM CST (2/25)
Length of Visible Light 12h 04m
Length of Day
11h 11m
Full, 100% of the Moon is Illuminated
Feb 25
Full
Feb 25
Full
Mar 4
Last Quarter
Mar 11
New
Mar 19
First Quarter

Hourly Weather History & Observations

Time (CST) Temp. Windchill Dew Point Humidity Pressure Visibility Wind Dir Wind Speed Gust Speed Precip Events Conditions
12:15 AM 31.8 °F 27.3 °F 23.0 °F 70% 30.03 in 10.0 mi NE 4.6 mph - N/A   Clear
12:35 AM 31.8 °F 26.2 °F 23.2 °F 70% 30.02 in 10.0 mi NE 5.8 mph - N/A   Clear
12:55 AM 31.6 °F 24.4 °F 23.2 °F 71% 30.02 in 10.0 mi NE 8.1 mph - N/A   Clear
1:15 AM 31.6 °F 24.4 °F 23.5 °F 72% 30.01 in 10.0 mi ENE 8.1 mph - N/A   Clear
1:35 AM 31.6 °F 23.7 °F 23.5 °F 72% 29.99 in 10.0 mi ENE 9.2 mph - N/A   Clear
1:55 AM 31.1 °F 22.4 °F 23.4 °F 73% 29.98 in 10.0 mi East 10.4 mph - N/A   Clear
2:15 AM 30.7 °F 24.1 °F 23.5 °F 75% 29.99 in 10.0 mi ENE 6.9 mph - N/A   Clear
2:35 AM 30.7 °F 26.0 °F 23.5 °F 75% 30.00 in 10.0 mi NE 4.6 mph - N/A   Clear
2:55 AM 28.8 °F 21.7 °F 22.8 °F 78% 30.00 in 10.0 mi NE 6.9 mph - N/A   Clear
3:15 AM 27.7 °F 22.4 °F 22.8 °F 82% 29.99 in 10.0 mi NE 4.6 mph - N/A   Clear
3:35 AM 27.1 °F 23.2 °F 22.6 °F 83% 30.00 in 10.0 mi ENE 3.5 mph - N/A   Clear
3:55 AM 28.8 °F 22.6 °F 23.7 °F 81% 29.99 in 10.0 mi East 5.8 mph - N/A   Clear
4:15 AM 28.9 °F 22.8 °F 23.5 °F 80% 29.98 in 10.0 mi ENE 5.8 mph - N/A   Clear
4:35 AM 28.6 °F 21.5 °F 23.5 °F 81% 29.98 in 10.0 mi ENE 6.9 mph - N/A   Clear
4:55 AM 28.0 °F 24.2 °F 23.2 °F 82% 29.98 in 10.0 mi North 3.5 mph - N/A   Clear
5:15 AM 26.6 °F 20.0 °F 23.2 °F 87% 29.98 in 10.0 mi NE 5.8 mph - N/A   Clear
5:35 AM 27.1 °F 21.8 °F 23.5 °F 86% 29.97 in 10.0 mi NE 4.6 mph - N/A   Clear
5:55 AM 25.5 °F 19.9 °F 22.5 °F 88% 29.98 in 7.0 mi NE 4.6 mph - N/A   Clear
6:15 AM 26.1 °F 19.4 °F 23.5 °F 90% 29.96 in 10.0 mi ENE 5.8 mph - N/A   Clear
6:35 AM 27.1 °F 21.8 °F 23.7 °F 87% 29.96 in 10.0 mi ENE 4.6 mph - N/A   Clear
6:55 AM 26.8 °F - 23.0 °F 86% 29.96 in 7.0 mi Calm Calm - N/A   Clear
7:15 AM 26.8 °F - 23.0 °F 86% 29.97 in 7.0 mi Calm Calm - N/A   Clear
7:35 AM 27.9 °F 24.0 °F 23.5 °F 84% 29.98 in 7.0 mi NE 3.5 mph - N/A   Clear
7:55 AM 27.7 °F 21.3 °F 23.0 °F 83% 29.96 in 10.0 mi NE 5.8 mph - N/A   Clear
8:15 AM 28.6 °F 21.5 °F 23.4 °F 81% 29.96 in 10.0 mi NE 6.9 mph - N/A   Clear
8:35 AM 30.9 °F 25.2 °F 24.3 °F 76% 29.96 in 10.0 mi ENE 5.8 mph - N/A   Clear
8:55 AM 32.2 °F 27.7 °F 24.6 °F 74% 29.97 in 10.0 mi ENE 4.6 mph - N/A   Clear
9:15 AM 33.8 °F 27.0 °F 24.8 °F 70% 29.96 in 10.0 mi ENE 8.1 mph - N/A   Clear
9:35 AM 35.8 °F 30.1 °F 25.2 °F 65% 29.97 in 10.0 mi East 6.9 mph - N/A   Clear
9:55 AM 37.4 °F 30.3 °F 25.5 °F 62% 29.96 in 10.0 mi East 10.4 mph - N/A   Clear
10:15 AM 38.7 °F 32.4 °F 25.5 °F 59% 29.96 in 10.0 mi East 9.2 mph - N/A   Clear
10:35 AM 39.6 °F 32.5 °F 25.5 °F 57% 29.95 in 10.0 mi East 11.5 mph - N/A   Clear
10:55 AM 40.1 °F 32.7 °F 25.0 °F 55% 29.93 in 10.0 mi ENE 12.7 mph - N/A   Clear
11:15 AM 41.0 °F 35.2 °F 24.8 °F 53% 29.94 in 10.0 mi ENE 9.2 mph - N/A   Clear
11:35 AM 41.7 °F 36.1 °F 25.2 °F 52% 29.92 in 10.0 mi ENE 9.2 mph - N/A   Clear
11:55 AM 41.5 °F 34.6 °F 25.5 °F 53% 29.90 in 10.0 mi ENE 12.7 mph - N/A   Clear
12:15 PM 41.9 °F 35.9 °F 25.2 °F 52% 29.90 in 10.0 mi ENE 10.4 mph - N/A   Clear
12:35 PM 41.9 °F 35.9 °F 25.2 °F 52% 29.88 in 10.0 mi NNE 10.4 mph 17.3 mph N/A   Clear
12:55 PM 41.0 °F 34.7 °F 25.9 °F 55% 29.88 in 10.0 mi NNE 10.4 mph - N/A   Clear
1:15 PM 40.8 °F 34.5 °F 25.7 °F 55% 29.89 in 10.0 mi NE 10.4 mph - N/A   Scattered Clouds
1:35 PM 41.2 °F 34.5 °F 25.5 °F 54% 29.87 in 10.0 mi NE 11.5 mph 16.1 mph N/A   Clear
1:55 PM 41.2 °F 35.0 °F 25.7 °F 54% 29.86 in 10.0 mi NE 10.4 mph - N/A   Clear
2:15 PM 41.0 °F 34.3 °F 25.9 °F 55% 29.84 in 10.0 mi NE 11.5 mph - N/A   Clear
2:35 PM 41.0 °F 33.5 °F 25.7 °F 55% 29.84 in 10.0 mi NE 13.8 mph - N/A   Mostly Cloudy
2:55 PM 40.8 °F 34.1 °F 25.7 °F 55% 29.84 in 10.0 mi NNE 11.5 mph 19.6 mph N/A   Overcast
3:15 PM 40.6 °F 33.0 °F 26.2 °F 57% 29.83 in 10.0 mi NNE 13.8 mph - N/A   Mostly Cloudy
3:35 PM 40.5 °F 33.2 °F 26.4 °F 57% 29.82 in 10.0 mi NNE 12.7 mph 17.3 mph N/A   Scattered Clouds
3:55 PM 40.6 °F 33.8 °F 26.1 °F 56% 29.84 in 10.0 mi NE 11.5 mph - N/A   Mostly Cloudy
4:15 PM 40.3 °F 32.6 °F 26.4 °F 58% 29.83 in 10.0 mi NNE 13.8 mph 17.3 mph N/A   Mostly Cloudy
4:35 PM 40.1 °F 32.0 °F 26.6 °F 59% 29.80 in 10.0 mi NNE 15.0 mph 21.9 mph N/A   Mostly Cloudy
4:55 PM 39.7 °F 31.9 °F 26.8 °F 60% 29.80 in 10.0 mi NNE 13.8 mph - N/A   Overcast
5:15 PM 39.2 °F 29.6 °F 27.0 °F 62% 29.78 in 10.0 mi NNE 19.6 mph - N/A   Overcast
5:35 PM 39.2 °F 31.2 °F 27.3 °F 62% 29.81 in 10.0 mi NE 13.8 mph 23.0 mph N/A   Overcast
5:55 PM 38.8 °F 31.6 °F 27.7 °F 64% 29.82 in 10.0 mi NNE 11.5 mph - N/A   Overcast
6:15 PM 38.7 °F 29.8 °F 27.9 °F 65% 29.80 in 10.0 mi NE 16.1 mph 21.9 mph N/A   Overcast
6:35 PM 38.5 °F 28.9 °F 28.2 °F 67% 29.78 in 10.0 mi NE 18.4 mph 25.3 mph N/A   Overcast
6:55 PM 38.3 °F 27.1 °F 28.6 °F 68% 29.72 in 10.0 mi NE 25.3 mph 34.5 mph N/A Rain Light Rain
7:15 PM 37.8 °F 28.3 °F 29.5 °F 72% 29.77 in 10.0 mi NE 17.3 mph 24.2 mph N/A Rain Light Rain
7:55 PM 37.6 °F 27.1 °F 30.2 °F 75% 29.74 in 10.0 mi NE 20.7 mph 32.2 mph N/A   Light Drizzle
8:15 PM 37.4 °F 28.5 °F 30.9 °F 77% 29.76 in 10.0 mi ENE 15.0 mph 25.3 mph N/A Rain Light Rain
8:35 PM 37.0 °F 27.7 °F 31.3 °F 80% 29.75 in 4.0 mi NE 16.1 mph 29.9 mph N/A Rain Light Rain
8:55 PM 36.0 °F 26.0 °F 32.0 °F 86% 29.74 in 2.5 mi ENE 17.3 mph 26.5 mph 0.04 in   Overcast
9:15 PM 34.3 °F 25.0 °F 32.5 °F 93% 29.75 in 1.0 mi ENE 13.8 mph 21.9 mph 0.06 in Snow Snow
9:35 PM 33.8 °F 23.9 °F 32.9 °F 96% 29.73 in 1.0 mi NE 15.0 mph 24.2 mph 0.11 in Snow Light Snow
9:55 PM 33.6 °F 24.1 °F 32.9 °F 97% 29.72 in 1.8 mi ENE 13.8 mph 20.7 mph 0.13 in Snow Light Snow
10:15 PM 33.4 °F 23.9 °F 32.9 °F 98% 29.71 in 1.8 mi NE 13.8 mph - 0.03 in Snow Light Snow
10:35 PM 33.4 °F 24.3 °F 33.1 °F 99% 29.69 in 2.0 mi NE 12.7 mph 20.7 mph 0.05 in Snow Light Snow
10:55 PM 33.6 °F 23.3 °F 33.1 °F 98% 29.66 in 2.5 mi NE 16.1 mph 20.7 mph 0.06 in Snow Light Snow
11:15 PM 33.8 °F 24.8 °F 33.1 °F 97% 29.64 in 3.0 mi NE 12.7 mph 19.6 mph 0.01 in Snow Light Snow
11:35 PM 33.8 °F 23.5 °F 32.9 °F 96% 29.63 in 5.0 mi NE 16.1 mph 23.0 mph 0.01 in Snow Light Snow
11:55 PM 33.8 °F 23.5 °F 32.9 °F 96% 29.62 in 5.0 mi NE 16.1 mph 23.0 mph 0.05 in Snow Light Snow